Location: Csohesd
(46.2500°N, 22.6167°E)
Time: 11:34:37
(UTC+00:00)

COSMO-SKYMED 1 - Pass Details

Date: 21 October 2021
Orbit: 621 x 623 km, 97.9° (Epoch: 07 December)

Event Time Altitude Azimuth Distance (km) Brightness Sun altitude
Rises 16:55:26 0° 10° (N) 2,917 5.9 -15.0°
Reaches altitude 10° 16:57:38 10° 8° (N) 2,005 5.1 -15.4°
Maximum altitude 17:01:58 66° 286° (WNW) 682 3.0 -16.1°
Drops below altitude 10° 17:06:15 10° 205° (SSW) 1,988 5.4 -16.9°
Sets 17:08:26 0° 202° (SSW) 2,889 6.3 -17.3°
